Location: Pl�tzky
(52.0521°N, 11.8020°E)
Time: 17:53:22
(UTC+00:00)

Cosmos 2227 - Pass Details

Date: 22 November 2019
Orbit: 832 x 863 km, 71.0° (Epoch: 11 December)

Event Time Altitude Azimuth Distance (km) Brightness Sun altitude
Rises 16:16:05 0° 329° (NNW) 3,456 7.5 -9.5°
Reaches altitude 10° 16:18:36 10° 333° (NNW) 2,516 6.8 -9.8°
Maximum altitude 16:24:20 61° 54° (NE) 980 4.3 -10.7°
Drops below altitude 10° 16:30:01 10° 135° (SE) 2,491 6.4 -11.5°
Sets 16:32:30 0° 139° (SE) 3,420 7.1 -11.9°
